Погода в Ильинке

Россия / Алтайский край     53°27′14″N   82°19′05″E
темп.,
°C
ветер,
м/с
пор.,
м/с
влажн.,
%
обл.,
%
осадки,
мм/ч
давл.,
гПа
погр.,
м
11 мая, вт
вт1101:00+11св51148100 0.0 1015354
04:00+9ссв4963100 0.0 1014221
07:00+8ссв4106499 0.0 1014430
10:00+14ссв684222 0.0 10141247
13:00+17ссв683299 0.0 10132039
16:00+19св6726100 0.0 10133004
19:00+19св5830100 0.0 10132853
22:00+14с3743100 0.0 1015106
12 мая, ср
ср1201:00+13ссв61348100 0.0 1016464
04:00+11с51158100 0.0 1016374
07:00+10с3965100 0.0 1017341
10:00+16с574496 0.0 1017651
13:00+20с6729100 0.0 10173157
16:00+20с662756 0.0 10162750
19:00+19ссз66325 0.0 10161932
22:00+14ссз224913 0.0 101718
13 мая, чт
чт1301:00+12сз115354 0.0 101711
04:00+11ююз1154100 0.0 101610
07:00+11з2550100 0.0 1016121
10:00+16з234679 0.0 1015719
13:00+18юз4335100 0.0 10142309
16:00+17сз434799 0.1 10131295
19:00+15сз666097 1.1 10141013
22:00+11ссз3779100 0.1 1014204
14 мая, пт
пт1401:00+10ссз3582100 0.1 1015120
04:00+10ссз377815 0.1 1016214
07:00+8ссз38784 0.1 1018244
10:00+14ссз47455 0.0 10191415
13:00+17ссз673823 0.0 10202178
16:00+18ссз673515 0.0 10202436
19:00+17ссз463659 0.0 10221918
22:00+12ссз34535 0.0 102458
15 мая, сб
сб1501:00+10зсз115621 0.0 102410
04:00+9з225418 0.0 102510
07:00+10юз355214 0.0 1025114
10:00+16з563650 0.0 1024702
13:00+20з563080 0.0 10231348
16:00+22з562929 0.0 10211719
19:00+22зюз45319 0.0 10201669
22:00+17ююз4843100 0.0 1019115